Darstellungsparameter: Aktuell verwendete Einstellungen:
Skalierung der Graphiken ... ?
xyx+y,   Skalierungsfaktor:      Skalierung: Modus: x, Faktor: 1
Darstellungszeitraum ... ?
Vom - - bis: - -   Zeitraum: 12.11.2008 - 12.11.2008
Min/Max/Avg-Anzeige ... ?
Zeige MMA aktuell
Zeige MMA Monat
Zeige MMA alles
Zeige --A aktuell
Zeige --A Monat
Zeige --A alles
Keine MMA-Anzeige
MMA:
Average (ber die Originaldaten)
MMA-Basis: 17.04.2019 - 19.05.2019
Quicknavigation für Darstellung... ?
Tage:      1T, 2T, 3T, 5T -1T -2T -3T -5T +1T +2T +3T +5T
Wochen: 1W, 2W, 3W -1W -2W -3W +1W +2W +3W
Monate: 1M, 3M, 6M -1M -3M -6M +1M +3M +6M
Jahre:    1J, 3J, 5J, 10J -1J -3J -5J -10J +1J +3J +5J +10J
Nutze für die Darstellung ... ?
Originaldaten oder Mittelwerte auf ...
Stundenbasis Tagesbasis Wochenbasis
Monatsbasis Jahresbasis      Datenbasis: Original-Daten
Darstellen als:
Statistik (Auto) Statistik J:M      Darstellung:
Zur Graphik,    zurück zur Übersicht aller Sensoren.
 
Tabellarische Datenbersicht: ?
 
Sensor: Nr:Datum:Temp:Abs-Feuchte:Windchill:Wind:
Aussen-T/F 1 12-11-2008 00:04:02 8.3 C 7.33 g/m*3 8.3 C 0 km/h
2 12-11-2008 00:16:03 8.2 C 7.37 g/m*3 8.2 C 0 km/h
3 12-11-2008 00:28:03 8.1 C 7.32 g/m*3 8.1 C 0 km/h
4 12-11-2008 00:40:02 8.2 C 7.45 g/m*3 8.2 C 0 km/h
5 12-11-2008 00:52:01 8.1 C 7.41 g/m*3 8.1 C 0 km/h
6 12-11-2008 01:04:02 8.3 C 7.5 g/m*3 8.3 C 0 km/h
7 12-11-2008 01:16:01 8.3 C 7.5 g/m*3 8.3 C 0 km/h
8 12-11-2008 01:28:01 8.4 C 7.55 g/m*3 8.4 C 0 km/h
9 12-11-2008 01:40:02 8.5 C 7.51 g/m*3 8.5 C 0 km/h
10 12-11-2008 01:52:02 8.5 C 7.51 g/m*3 8.5 C 0 km/h
11 12-11-2008 02:04:02 8.2 C 7.2 g/m*3 8.2 C 0 km/h
12 12-11-2008 02:16:02 8.1 C 7.16 g/m*3 8.1 C 0 km/h
13 12-11-2008 02:28:02 8.1 C 7.16 g/m*3 8.1 C 0 km/h
14 12-11-2008 02:40:02 8 C 7.03 g/m*3 8 C 0 km/h
15 12-11-2008 02:53:03 8.1 C 6.99 g/m*3 8.1 C 0 km/h
16 12-11-2008 03:05:04 8 C 6.94 g/m*3 8 C 0 km/h
17 12-11-2008 03:17:03 7.6 C 6.85 g/m*3 7.6 C 0 km/h
18 12-11-2008 03:29:03 7.5 C 6.88 g/m*3 7.5 C 0 km/h
19 12-11-2008 03:41:01 7.3 C 6.79 g/m*3 7.3 C 0 km/h
20 12-11-2008 03:53:01 7.1 C 6.79 g/m*3 7.1 C 0 km/h
21 12-11-2008 04:05:02 7.3 C 6.95 g/m*3 7.3 C 0 km/h
22 12-11-2008 04:17:02 7.4 C 7 g/m*3 7.4 C 0 km/h
23 12-11-2008 04:29:02 7.2 C 6.91 g/m*3 7.2 C 0 km/h
24 12-11-2008 04:41:02 7.5 C 7.04 g/m*3 7.5 C 0 km/h
25 12-11-2008 04:53:02 7.7 C 7.14 g/m*3 7.7 C 0 km/h
Sensor: Nr:Datum:Temp:Abs-Feuchte:Windchill:Wind:
Aussen-T/F 26 12-11-2008 05:05:02 7.9 C 7.15 g/m*3 7.9 C 0 km/h
27 12-11-2008 05:17:01 7.9 C 7.15 g/m*3 7.9 C 0 km/h
28 12-11-2008 05:29:01 7.8 C 7.1 g/m*3 7.8 C 0 km/h
29 12-11-2008 05:41:02 7.6 C 7.01 g/m*3 7.6 C 0 km/h
30 12-11-2008 05:53:02 7.4 C 6.92 g/m*3 7.4 C 0 km/h
31 12-11-2008 06:05:02 7.4 C 6.92 g/m*3 7.4 C 0 km/h
32 12-11-2008 06:17:02 7.5 C 6.96 g/m*3 7.5 C 0 km/h
33 12-11-2008 06:29:02 7.8 C 6.94 g/m*3 7.8 C 0 km/h
34 12-11-2008 06:41:02 8 C 6.7 g/m*3 8 C 0 km/h
35 12-11-2008 06:53:01 8 C 6.7 g/m*3 8 C 0 km/h
36 12-11-2008 07:05:02 7.8 C 6.69 g/m*3 7.8 C 0 km/h
37 12-11-2008 07:17:01 7.5 C 6.56 g/m*3 7.5 C 0 km/h
38 12-11-2008 07:29:01 7.4 C 6.44 g/m*3 7.4 C 0 km/h
39 12-11-2008 07:41:01 7.2 C 6.44 g/m*3 7.2 C 0 km/h
40 12-11-2008 07:53:02 7.6 C 6.69 g/m*3 7.6 C 0 km/h
41 12-11-2008 08:05:02 7.8 C 6.61 g/m*3 7.8 C 0 km/h
42 12-11-2008 08:17:02 7.9 C 6.49 g/m*3 7.9 C 0 km/h
43 12-11-2008 08:29:02 8 C 6.45 g/m*3 8 C 0 km/h
44 12-11-2008 08:41:02 8.1 C 6.41 g/m*3 8.1 C 0 km/h
45 12-11-2008 08:53:02 7.9 C 6.49 g/m*3 7.9 C 0 km/h
46 12-11-2008 09:05:02 7.8 C 6.45 g/m*3 7.8 C 0 km/h
47 12-11-2008 09:17:02 7.6 C 6.44 g/m*3 7.6 C 0 km/h
48 12-11-2008 09:29:02 7.7 C 6.57 g/m*3 7.7 C 0 km/h
49 12-11-2008 09:41:02 8.2 C 6.7 g/m*3 8.2 C 0 km/h
50 12-11-2008 09:53:02 8.2 C 6.53 g/m*3 8.2 C 0 km/h
Sensor: Nr:Datum:Temp:Abs-Feuchte:Windchill:Wind:
Aussen-T/F 51 12-11-2008 10:05:01 8.2 C 6.53 g/m*3 8.2 C 0 km/h
52 12-11-2008 10:17:02 8.9 C 6.57 g/m*3 8.9 C 0 km/h
53 12-11-2008 10:29:02 9.3 C 6.38 g/m*3 9.3 C 0 km/h
54 12-11-2008 10:41:01 9.4 C 6.15 g/m*3 9.4 C 0 km/h
55 12-11-2008 10:53:02 9.6 C 6.32 g/m*3 9.6 C 0 km/h
56 12-11-2008 11:05:01 9.8 C 6.31 g/m*3 9.8 C 0 km/h
57 12-11-2008 11:17:02 10.2 C 6.38 g/m*3 10.2 C 0 km/h
58 12-11-2008 11:29:02 10.7 C 6.48 g/m*3 10.7 C 0 km/h
59 12-11-2008 11:41:01 10.6 C 6.44 g/m*3 10.6 C 0 km/h
60 12-11-2008 11:53:01 9.9 C 6.63 g/m*3 9.9 C 0 km/h
61 12-11-2008 12:05:01 10.4 C 6.84 g/m*3 10.4 C 0 km/h
62 12-11-2008 12:17:02 10.5 C 6.89 g/m*3 10.5 C 0 km/h
63 12-11-2008 12:29:02 10.4 C 6.65 g/m*3 10.4 C 0 km/h
64 12-11-2008 12:41:01 10.9 C 6.76 g/m*3 10.9 C 0 km/h
65 12-11-2008 12:53:01 11.2 C 6.39 g/m*3 11.2 C 0 km/h
66 12-11-2008 13:05:01 11.8 C 6.31 g/m*3 11.8 C 0 km/h
67 12-11-2008 13:17:01 11.7 C 6.38 g/m*3 11.7 C 0 km/h
68 12-11-2008 13:29:01 11.1 C 6.04 g/m*3 11.1 C 0 km/h
69 12-11-2008 13:41:01 11.5 C 6.09 g/m*3 11.5 C 0 km/h
70 12-11-2008 13:53:01 11.5 C 5.89 g/m*3 11.5 C 0 km/h
71 12-11-2008 14:05:02 11.2 C 5.88 g/m*3 11.2 C 0 km/h
72 12-11-2008 14:17:01 11.9 C 5.93 g/m*3 11.9 C 0 km/h
73 12-11-2008 14:29:01 11.7 C 5.75 g/m*3 11.7 C 0 km/h
74 12-11-2008 14:41:02 11.2 C 5.78 g/m*3 11.2 C 0 km/h
75 12-11-2008 14:53:02 10.9 C 5.97 g/m*3 10.9 C 0 km/h
Sensor: Nr:Datum:Temp:Abs-Feuchte:Windchill:Wind:
Aussen-T/F 76 12-11-2008 15:05:02 12 C 5.97 g/m*3 12 C 0 km/h
77 12-11-2008 15:17:01 12.3 C 5.86 g/m*3 12.3 C 0 km/h
78 12-11-2008 15:29:01 11.8 C 5.79 g/m*3 11.8 C 0 km/h
79 12-11-2008 15:41:02 11.1 C 5.84 g/m*3 11.1 C 0 km/h
80 12-11-2008 15:53:02 10.7 C 5.89 g/m*3 10.7 C 0 km/h
81 12-11-2008 16:05:02 10.8 C 5.93 g/m*3 10.8 C 0 km/h
82 12-11-2008 16:17:02 10.8 C 5.93 g/m*3 10.8 C 0 km/h
83 12-11-2008 16:29:02 10.4 C 5.88 g/m*3 10.4 C 0 km/h
84 12-11-2008 16:41:02 9.9 C 5.98 g/m*3 9.9 C 0 km/h
85 12-11-2008 16:53:02 9.6 C 5.95 g/m*3 9.6 C 0 km/h
86 12-11-2008 17:05:01 9.5 C 6.01 g/m*3 9.5 C 0 km/h
87 12-11-2008 17:17:02 9.2 C 6.07 g/m*3 9.2 C 0 km/h
88 12-11-2008 17:29:02 8.7 C 6.05 g/m*3 8.7 C 0 km/h
89 12-11-2008 17:41:01 8.3 C 5.98 g/m*3 8.3 C 0 km/h
90 12-11-2008 17:53:03 8.1 C 6.07 g/m*3 8.1 C 0 km/h
91 12-11-2008 18:05:02 7.8 C 6.04 g/m*3 7.8 C 0 km/h
92 12-11-2008 18:17:02 7.8 C 6.2 g/m*3 7.8 C 0 km/h
93 12-11-2008 18:29:02 7.6 C 6.2 g/m*3 7.6 C 0 km/h
94 12-11-2008 18:41:02 7.6 C 6.2 g/m*3 7.6 C 0 km/h
95 12-11-2008 18:53:03 7.8 C 6.28 g/m*3 7.8 C 0 km/h
96 12-11-2008 19:05:02 7.7 C 6.24 g/m*3 7.7 C 0 km/h
97 12-11-2008 19:17:02 7.6 C 6.2 g/m*3 7.6 C 0 km/h
98 12-11-2008 19:29:02 7.8 C 6.37 g/m*3 7.8 C 0 km/h
99 12-11-2008 19:41:02 7.7 C 6.32 g/m*3 7.7 C 0 km/h
100 12-11-2008 19:53:02 7.8 C 6.45 g/m*3 7.8 C 0 km/h
Sensor: Nr:Datum:Temp:Abs-Feuchte:Windchill:Wind:
Aussen-T/F 101 12-11-2008 20:05:01 7.9 C 6.41 g/m*3 7.9 C 0 km/h
102 12-11-2008 20:17:02 7.9 C 6.41 g/m*3 7.9 C 0 km/h
103 12-11-2008 20:29:02 7.8 C 6.45 g/m*3 7.8 C 0 km/h
104 12-11-2008 20:41:01 7.7 C 6.41 g/m*3 7.7 C 0 km/h
105 12-11-2008 20:53:02 7.4 C 6.28 g/m*3 7.4 C 0 km/h
106 12-11-2008 21:05:01 7.1 C 6.24 g/m*3 7.1 C 0 km/h
107 12-11-2008 21:17:02 7.1 C 6.32 g/m*3 7.1 C 0 km/h
108 12-11-2008 21:29:02 7.1 C 6.32 g/m*3 7.1 C 0 km/h
109 12-11-2008 21:41:01 7.1 C 6.32 g/m*3 7.1 C 0 km/h
110 12-11-2008 21:53:01 7.1 C 6.4 g/m*3 7.1 C 0 km/h
111 12-11-2008 22:05:02 7.2 C 6.44 g/m*3 7.2 C 0 km/h
112 12-11-2008 22:17:02 7.1 C 6.32 g/m*3 7.1 C 0 km/h
113 12-11-2008 22:29:02 6.8 C 6.27 g/m*3 6.8 C 0 km/h
114 12-11-2008 22:41:01 6.3 C 6.14 g/m*3 6.3 C 0 km/h
115 12-11-2008 22:53:01 6.2 C 6.18 g/m*3 6.2 C 0 km/h
116 12-11-2008 23:05:02 6 C 6.1 g/m*3 6 C 0 km/h
117 12-11-2008 23:17:01 5.7 C 6.05 g/m*3 5.7 C 0 km/h
118 12-11-2008 23:29:01 5.5 C 6.04 g/m*3 5.5 C 0 km/h
119 12-11-2008 23:41:02 5.2 C 5.92 g/m*3 5.2 C 0 km/h
120 12-11-2008 23:53:02 5 C 5.84 g/m*3 5 C 0 km/h

Legende:
   Min
   Max


Maximal/Minimal-Werte vom 17.04.2019 - 19.05.2019

Sensor Min Max Avg
Temp
(Aussen-T/F)
2.2 °C
13-05-2019  06:50:00
26.6 °C
24-04-2019  17:05:00
11.51 °C

Die Daten stammen von einer Davis Vantage Pro 2 Wetter-Station und werden unter Linux mit der Software wview2wettercgi und aufbereitet. Alle Angaben erfolgen ohne Gewähr für ihre Vollständigkeit oder Richtigkeit.
Kontakt: Rainer Krienke krienke@uni-koblenz.de . Meine Webseiten an der Uni Koblenz oder privat.
Version: $Revision: 0.78 $